Location: Marsån
(66.4167°N, 22.2833°E)
Time: 07:45:49
(UTC+00:00)

ATLAS 2AS CENTAUR R/B - Pass Details

Date: 24 February 2024
Orbit: 1007 x 1204 km, 63.7° (Epoch: 07 March)

Event Time Altitude Azimuth Distance (km) Brightness Sun altitude
Rises 16:26:03 0° 233° (SW) 4,042 6.9 -6.9°
Reaches altitude 10° 16:28:52 10° 229° (SW) 3,058 6.1 -7.2°
Maximum altitude 16:35:57 58° 153° (SSE) 1,292 3.1 -7.9°
Drops below altitude 10° 16:42:44 10° 77° (ENE) 2,924 4.3 -8.5°
Enters shadow 16:42:46 10° 77° (ENE) 2,936 4.3 -8.5°
